This is the latest recevied weather packets stored in our database for station/object N8BAP. If no packets are shown the sender has not sent any weather packets the latest 10 day(s).
| Time | Temp. | Humidity | Pressure | Rain* | Wind** | Luminosity | Snow |
|---|---|---|---|---|---|---|---|
| 1778186163 | 15.56° C | 41% | 1018.6 hPa | 0 mm | - | 547 W/m² | - |
| 1778185861 | 15° C | 42% | 1018.6 hPa | 0 mm | - | 530 W/m² | - |
| 1778185556 | 15° C | 41% | 1018.5 hPa | 0 mm | - | 575 W/m² | - |
| 1778185252 | 15° C | 40% | 1018.6 hPa | 0 mm | - | 586 W/m² | - |
| 1778184948 | 15.56° C | 43% | 1018.6 hPa | 0 mm | - | 598 W/m² | - |
| 1778184645 | 15° C | 44% | 1018.8 hPa | 0 mm | - | 603 W/m² | - |
| 1778184340 | 15° C | 43% | 1018.6 hPa | 0 mm | - | 618 W/m² | - |
| 1778184036 | 14.44° C | 43% | 1018.9 hPa | 0 mm | - | 624 W/m² | - |
| 1778183734 | 14.44° C | 44% | 1018.9 hPa | 0 mm | - | 619 W/m² | - |
| 1778183431 | 15° C | 42% | 1018.8 hPa | 0 mm | - | 438 W/m² | - |
| 1778183127 | 15° C | 42% | 1019.1 hPa | 0 mm | - | 629 W/m² | - |
| 1778182824 | 15° C | 38% | 1018.9 hPa | 0 mm | - | 655 W/m² | - |
| 1778182521 | 14.44° C | 45% | 1018.8 hPa | 0 mm | - | 657 W/m² | - |
| 1778182218 | 15° C | 44% | 1018.9 hPa | 0 mm | - | 659 W/m² | - |
| 1778181914 | 14.44° C | 44% | 1019.1 hPa | 0 mm | - | 676 W/m² | - |
| 1778181611 | 14.44° C | 47% | 1019.2 hPa | 0 mm | - | 698 W/m² | - |
| 1778181306 | 14.44° C | 43% | 1019.1 hPa | 0 mm | - | 700 W/m² | - |
| 1778181003 | 14.44° C | 43% | 1019.1 hPa | 0 mm | - | 696 W/m² | - |
| 1778180701 | 14.44° C | 42% | 1019.1 hPa | 0 mm | - | 695 W/m² | - |
| 1778180400 | 14.44° C | 45% | 1019 hPa | 0 mm | - | 694 W/m² | - |
| 1778180096 | 14.44° C | 45% | 1019 hPa | 0 mm | - | 708 W/m² | - |
| 1778179793 | 14.44° C | 42% | 1019.2 hPa | 0 mm | - | 704 W/m² | - |
| 1778179491 | 14.44° C | 43% | 1019.1 hPa | 0 mm | - | 683 W/m² | - |
| 1778179189 | 13.89° C | 46% | 1019 hPa | 0 mm | - | 703 W/m² | - |
| 1778178885 | 14.44° C | 44% | 1019.1 hPa | 0 mm | - | 697 W/m² | - |
* Rain latest hour (hover to see other rain measurements)
** Current wind speed in m/s (hover to see current wind gust speed)